TimeCET,TemperatureF,Dew PointF,Humidity,Sea Level PressureIn,VisibilityMPH,Wind Direction,Wind SpeedMPH,Gust SpeedMPH,PrecipitationIn,Events,Conditions,WindDirDegrees,DateUTC
12:55 AM,30.2,30.2,100,29.53,0.0,SSW,19.6,33.4,N/A,Fog,Light Freezing Fog,210,2012-11-01 23:55:00
1:00 AM,31,31,97,,0,SSW,19.6,,,Fog,Heavy Fog,210,2012-11-02 00:00:00
1:55 AM,30.2,30.2,100,29.53,0.0,SSW,20.7,32.2,N/A,Fog,Light Freezing Fog,200,2012-11-02 00:55:00
2:55 AM,30.2,30.2,100,29.53,0.0,SSW,24.2,-,N/A,Fog,Light Freezing Fog,200,2012-11-02 01:55:00
3:55 AM,30.2,30.2,100,29.53,0.0,SSW,23.0,34.5,N/A,Fog,Light Freezing Fog,200,2012-11-02 02:55:00
4:00 AM,30,30,100,,0,SSW,23.0,,,Fog,Heavy Fog,200,2012-11-02 03:00:00
4:55 AM,30.2,30.2,100,29.53,0.0,SSW,28.8,40.3,N/A,Fog,Light Freezing Fog,200,2012-11-02 03:55:00
5:55 AM,30.2,30.2,100,29.53,0.0,SSW,25.3,36.8,N/A,Fog,Light Freezing Fog,200,2012-11-02 04:55:00
6:55 AM,30.2,30.2,100,29.53,0.0,SSW,29.9,46.0,N/A,Fog,Light Freezing Fog,210,2012-11-02 05:55:00
7:00 AM,30,30,99,,0,SSW,29.9,,,Fog,Heavy Fog,210,2012-11-02 06:00:00
7:55 AM,30.2,30.2,100,29.59,-9999.0,SSW,26.5,46.0,N/A,Fog,Light Freezing Fog,210,2012-11-02 06:55:00
8:55 AM,30.2,30.2,100,29.62,-9999.0,SW,21.9,33.4,N/A,Fog,Light Freezing Fog,220,2012-11-02 07:55:00
9:55 AM,30.2,30.2,100,29.65,-9999.0,SW,19.6,31.1,N/A,Fog,Light Freezing Fog,220,2012-11-02 08:55:00
10:55 AM,30.2,30.2,100,29.65,-9999.0,SSW,17.3,-,N/A,Fog,Light Freezing Fog,200,2012-11-02 09:55:00
11:55 AM,30.2,30.2,100,29.68,0.0,WSW,16.1,-,N/A,Fog,Light Freezing Fog,240,2012-11-02 10:55:00
12:55 PM,30.2,30.2,100,29.68,0.2,SW,16.1,-,N/A,Fog,Light Freezing Fog,220,2012-11-02 11:55:00
1:00 PM,31,31,99,,0,SW,16.1,,,Fog,Heavy Fog,220,2012-11-02 12:00:00
1:55 PM,30.2,28.4,93,29.71,0.4,SW,18.4,-,N/A,Fog,Light Freezing Fog,230,2012-11-02 12:55:00
2:55 PM,32.0,30.2,93,29.71,0.4,SW,21.9,-,N/A,Fog,Light Freezing Fog,230,2012-11-02 13:55:00
3:55 PM,32.0,30.2,93,29.74,0.4,SSW,17.3,-,N/A,Fog,Light Freezing Fog,210,2012-11-02 14:55:00
4:00 PM,32,31,92,,0,SSW,17.3,,,Fog,Heavy Fog,210,2012-11-02 15:00:00
4:55 PM,32.0,30.2,93,29.74,0.2,SW,19.6,35.7,N/A,Fog,Light Freezing Fog,220,2012-11-02 15:55:00
5:55 PM,32.0,30.2,93,29.74,0.2,SW,19.6,32.2,N/A,Fog,Light Freezing Fog,220,2012-11-02 16:55:00
6:55 PM,30.2,28.4,93,29.77,0.6,SSW,24.2,36.8,N/A,Fog,Light Freezing Fog,210,2012-11-02 17:55:00
7:00 PM,30,28,87,,1,SSW,24.2,,,Fog,Heavy Fog,210,2012-11-02 18:00:00
7:55 PM,30.2,26.6,86,29.77,-9999.0,SSW,23.0,35.7,N/A,,Clear,210,2012-11-02 18:55:00
8:55 PM,28.4,24.8,86,29.77,-9999.0,SSW,26.5,40.3,N/A,,Clear,200,2012-11-02 19:55:00
9:55 PM,30.2,28.4,93,29.80,1.9,SSW,29.9,-,N/A,Fog,Light Freezing Fog,200,2012-11-02 20:55:00
10:00 PM,29,28,97,,0,SSW,29.9,,,Fog,Heavy Fog,200,2012-11-02 21:00:00
10:55 PM,30.2,30.2,100,29.80,0.2,SSW,28.8,-,N/A,Fog,Light Freezing Fog,200,2012-11-02 21:55:00
11:55 PM,30.2,30.2,100,29.83,0.0,SSW,23.0,-,N/A,Fog,Light Freezing Fog,200,2012-11-02 22:55:00